Regional Weather Roundup
Issued by NWS

Home | Current Version | Previous Version | Text Only | Print | Product List | Glossary Off
Versions: 1 2 3 4 5 6 7 8 9 10 11 12 13 14 15 16 17 18 19 20 21 22 23 24 25 26 27 28 29 30 31 32 33 34 35 36 37 38 39 40 41 42 43 44 45 46 47 48 49 50

000
ASUS43 KMPX 032210
RWRMN
WEATHER ROUNDUP FOR MINNESOTA
NATIONAL WEATHER SERVICE TWIN CITIES/CHANHASSEN MN
500 PM CDT TUE MAY 03 2016


NOTE: "FAIR" INDICATES FEW OR NO CLOUDS BELOW 12,000 FEET WITH NO
SIGNIFICANT WEATHER AND/OR OBSTRUCTIONS TO VISIBILITY. N/A MEANS
CURRENT SKY AND/OR WEATHER CONDITIONS ARE NOT AVAILABLE.

MNZ060>063-068>070-032300-
   Twin Cities Metro

CITY           SKY/WX    TMP DP  RH WIND       PRES   REMARKS
TWIN CITIES    PTSUNNY   70  39  32 W15G25    29.69F
ST PAUL        MOSUNNY   71  42  35 W17G25    29.69F
CRYSTAL        MOSUNNY   72  39  30 W17G24    29.67F
BLAINE         PTSUNNY   70  39  32 W14G22    29.68
EDEN PRAIRIE   CLOUDY    72  39  30 W16       29.69F
SOUTH ST PAUL  SUNNY     70  38  30 NW16G23   29.69F
LAKE ELMO      FAIR      68  43  40 W13G22    29.70F
$$
MNZ001>005-007-008-013>017-022>024-027-028-032300-
   Northwest Minnesota

CITY           SKY/WX    TMP DP  RH WIND       PRES   REMARKS
BEMIDJI        SUNNY     63  26  24 N16G31    29.81R
HALLOCK        SUNNY     64  25  22 N25G31    29.91R
ROSEAU         MOSUNNY   64  32  29 N13       29.88R
WARROAD        MOSUNNY   61  34  36 N16G24    29.88R
THIEF RVR FALL SUNNY     63  25  23 N23       29.89R
CROOKSTON      SUNNY     66  28  24 N24G35    29.88S
FOSSTON        SUNNY     66  25  20 N22G31    29.85S
DETROIT LAKES  SUNNY     64  27  24 N15G32    29.84R
MOORHEAD       SUNNY     70  27  19 N26G40    29.85S
PARK RAPIDS    SUNNY     66  19  16 N21G35    29.78R
MAHNOMEN       FAIR      65  27  23 N21G29    29.84R
$$
MNZ006-009>011-018-025>026-032300-
   North Central Minnesota

CITY           SKY/WX    TMP DP  RH WIND       PRES   REMARKS
BAUDETTE       SUNNY     61  31  32 N17G31    29.85R
FLAG ISLAND    PTSUNNY   55  34  44 N18       29.88R
INTL FALLS     PTSUNNY   59  33  37 N17       29.81R
WASKISH        SUNNY     63  34  34 N13G22    29.83S
BIG FORK       MOSUNNY   64  27  24 N8G22     29.78R
LONGVILLE      SUNNY     64  21  19 NW13G21   29.77R
GRAND RAPIDS   SUNNY     64  27  24 N18G31    29.76R
CRANE LAKE     PTSUNNY   59  30  33 NW14G22   29.78R
ORR            MOSUNNY   63  25  23 NW12G21   29.74R
COOK           MOSUNNY   63  28  27 NW15G23   29.76R
WALKER         FAIR      63  26  24 N17G24    29.79R
$$
MNZ012-019>021-037-032300-
   Northeast Minnesota

CITY           SKY/WX    TMP DP  RH WIND       PRES   REMARKS
DULUTH         PTSUNNY   67  27  22 N22G36    29.68R
ELY            MOSUNNY   61  25  25 N10G21    29.72R
HIBBING        MOSUNNY   63  26  24 N17G28    29.72R
EVELETH        SUNNY     63  27  25 NW15G26   29.73R
DULUTH HARBOR  MOSUNNY   61  30  31 N17G24    29.68R
TWO HARBORS      N/A     70  37  30 N12G21    29.66R
SILVER BAY     LGT RAIN  61  30  31 N6G18     29.67R
GRAND MARAIS     N/A     64  32  30 N14G23    29.66R
G MARAIS ARPRT MOSUNNY   57  30  35 NW13G24   29.68S
$$
MNZ029>031-032-039>041-046>048-054>057-064-032300-
   West Central Minnesota

CITY           SKY/WX    TMP DP  RH WIND       PRES   REMARKS
FERGUS FALLS   SUNNY     66  28  24 N18G38    29.79R
WHEATON        SUNNY     72  30  21 NW26G39   29.84R
MORRIS         SUNNY     72  27  18 N32G41    29.78S
ALEXANDRIA     SUNNY     68  25  19 N24G33    29.78R
ELBOW LAKE     FAIR      67  29  24 NW24G36   29.81R
WADENA         SUNNY     66  28  24 NW14G30   29.77R
GLENWOOD       SUNNY     70  25  18 NW24G33   29.77S
APPLETON       SUNNY     73  19  13 N25G37    29.78R
BENSON         SUNNY     72  10   9 N28G36    29.77R
ORTONVILLE     SUNNY     72  25  17 N30G37    29.81R
MADISON        SUNNY     73  28  19 N29G39    29.78R
WILLMAR        FAIR      73  32  21 NW24G36   29.75R
$$
MNZ033>034-036-042>043-049>051-058-059-032300-
   Central Minnesota

CITY           SKY/WX    TMP DP  RH WIND       PRES   REMARKS
ST CLOUD       MOSUNNY   73  26  17 NW21G32   29.68F
SAUK CENTRE    FAIR      69  27  20 NW20G32   29.74R
PAYNESVILLE    SUNNY     73  25  16 NW22G29   29.73R
AITKIN         SUNNY     70  14  11 NW14G24   29.72R
PINE RIVER     SUNNY     66  34  30 N21G35    29.79R
BRAINERD       SUNNY     67  28  23 N21G35    29.74R
STAPLES        SUNNY     68  21  17 NW17G31   29.75S
LONG PRAIRIE   FAIR      68  28  22 NW23G29   29.75R
LITTLE FALLS   SUNNY     70  27  19 N12G23    29.72R
LITCHFIELD     MOSUNNY   73  37  27 W21       29.71F
BUFFALO        PTSUNNY   71  39  31 W15G22    29.69F
MAPLE LAKE     PTSUNNY   71  43  37 W10       29.70F
HUTCHINSON     PTSUNNY   72  42  34 W21       29.72F
$$
MNZ037-044-045-052-053-032300-
   East Central Minnesota

CITY           SKY/WX    TMP DP  RH WIND       PRES   REMARKS
PRINCETON      MOSUNNY   72  41  33 N13       29.68F
MORA           SUNNY     68  30  24 NW24G32   29.70R
CAMBRIDGE      SUNNY     73  48  40 W16G25    29.66F
RUSH CITY      MOSUNNY   70  36  29 NW13G23   29.67F
MOOSE LAKE     SUNNY     68  27  21 NW13G30   29.67R
HINCKLEY       CLOUDY    70  32  24 NW13G26   29.67S
CLOQUET        MOSUNNY   66  19  16 NW17G30   29.69R
MCGREGOR       SUNNY     66  27  22 N22G29    29.72R
$$
MNZ071>073-080-081-089-090-097-098-032300-
   Southwest Minnesota

CITY           SKY/WX    TMP DP  RH WIND       PRES   REMARKS
MONTEVIDEO     MOSUNNY   75  28  17 N30G40    29.77R
GRANITE FALLS  MOSUNNY   74  43  32 W22       29.76F
CANBY          MOSUNNY   76  41  28 NW25G32   29.79R
MARSHALL       MOSUNNY   73  42  32 W21G30    29.75F
REDWOOD FALLS  CLOUDY    73  39  29 W23G31    29.74F
OLIVIA         PTSUNNY   73  43  33 NW21G36   29.73F
PIPESTONE      MOSUNNY   72  36  26 NW18      29.83F
WINDOM         MOSUNNY   72  37  28 W18G25    29.80S
WORTHINGTON    MOSUNNY   67  42  40 NW18G26   29.83F
JACKSON        MOSUNNY   70  34  26 W22G28    29.81F
TRACY          PTSUNNY   73  40  30 W15G23    29.79F
SLAYTON        CLOUDY    69  39  32 W17G24    29.82F
$$
MNZ065>067-074>077-082>085-091>093-032300-
   South Central Minnesota

CITY           SKY/WX    TMP DP  RH WIND       PRES   REMARKS
MANKATO        PTSUNNY   70  39  32 W15G23    29.74F
NEW ULM        MOSUNNY   72  37  28 W18G24    29.74F
ST JAMES       MOSUNNY   66  36  32 W14G29    29.77F
FAIRMONT       PTSUNNY   70  43  37 W21G28    29.78F
GLENCOE        CLOUDY    72  43  35 W15G23    29.70F
FARIBAULT      CLOUDY    70  39  32 W12G21    29.73F
OWATONNA       MOSUNNY   70  37  30 W22       29.75F
WASECA         CLOUDY    72  41  33 W23       29.76F
ALBERT LEA     MOSUNNY   66  43  42 W13       29.76F
$$
MNZ078>079-086>088-094>096-032300-
   Southeast Minnesota

CITY           SKY/WX    TMP DP  RH WIND       PRES   REMARKS
ROCHESTER      MOSUNNY   67  39  35 W20G32    29.75F
RED WING       CLOUDY    72  36  26 W13G23    29.69F
STANTON        MOSUNNY   70  37  29 W16G25    29.70F
DODGE CENTER   MOSUNNY   66  37  34 W17G28    29.75F
WINONA         PTSUNNY   70  36  28 W14G24    29.72F
AUSTIN         MOSUNNY   66  39  37 W21       29.77F
PRESTON        MOSUNNY   66  36  33 W21G31    29.77F
$$
ABBREVIATIONS USED IN REMARKS
   TC - TEMPERATURES IN CELSIUS
  WCI - WIND CHILL INDEX
   HX - HEAT INDEX
  VSB - VISIBILITY
$$



USA.gov is the U.S. government's official web portal to all federal, state and local government web resources and services.